Date String (YYYY-MM-DD hh:mm:ss) UTC,Instrument flags,absolute air pressure of the measurement (hPa),sample flow rate (lpm),inlet stack bypass flow (lpm),air temperature of the measurement (°C),ambient temperature measured by the external sensor (°C),aerosol sample conditioner tube jacket temperature (°C),OPC LED temperature (°C),internal box temperature (°C),relative humidity of the measurement (%),span deviation,mass concentration of particles derived from Lorenz-Mie calculation of OPC scattering (μg/m³),mass concentration of particles derived from Lorenz-Mie calculation of OPC scattering (μg/m³),mass concentration of particles derived from Lorenz-Mie calculation of OPC scattering (μg/m³)
DateTimeUTC,F1_M11,P_M11,Q1_M11,Q2_M11,T1_M11,T2_M11,T3_M11,T4_M11,T5_M11,U1_M11,ZSPAN_M11,X2_M11,X0_M11,X1_M11
2024-04-30 22:00:00,SystemResetWarning,0822.7,5.01,000.00,025.9,023.4,000.0,034.4,026.8,008.3,0000.0,0004.10,0011.25,0002.25
2024-04-30 22:01:00,SystemResetWarning,0822.8,5.00,000.00,025.4,021.8,000.0,034.4,026.0,008.2,0000.0,0004.14,0011.27,0002.25
2024-04-30 22:02:00,SystemResetWarning,0822.7,5.02,000.00,025.2,022.1,000.0,034.3,026.0,008.5,0000.0,0004.16,0011.26,0002.24
2024-04-30 22:03:00,SystemResetWarning,0822.6,5.00,000.00,025.1,022.5,000.0,034.1,026.2,007.9,0000.0,0004.13,0011.40,0002.24
2024-04-30 22:04:00,SystemResetWarning,0822.7,5.00,000.00,025.2,022.9,000.0,034.0,026.5,007.9,0000.0,0004.13,0011.08,0002.26
2024-04-30 22:05:00,SystemResetWarning,0822.9,5.00,000.00,025.2,023.3,000.0,034.0,026.7,008.4,0000.0,0004.15,0011.05,0002.25
2024-04-30 22:06:00,SystemResetWarning,0822.7,5.00,000.00,025.2,023.6,000.0,033.9,026.9,008.4,0000.0,0004.16,0011.10,0002.25
2024-04-30 22:07:00,SystemResetWarning,0822.6,4.99,000.00,025.3,023.9,000.0,033.9,027.0,009.3,0000.0,0004.14,0010.94,0002.24
2024-04-30 22:08:00,SystemResetWarning,0822.7,4.99,000.00,025.3,024.1,000.0,033.9,027.1,009.4,0000.0,0004.13,0010.57,0002.23
2024-04-30 22:09:00,SystemResetWarning,0822.7,5.00,000.00,025.4,024.3,000.0,033.8,027.2,009.0,0000.0,0004.16,0010.73,0002.23
2024-04-30 22:10:00,SystemResetWarning,0822.6,5.01,000.00,025.4,024.5,000.0,033.8,027.3,009.2,0000.0,0004.14,0009.97,0002.24
2024-04-30 22:11:00,SystemResetWarning,0822.8,5.01,000.00,025.5,024.6,000.0,033.9,027.3,008.4,0000.0,0004.08,0009.86,0002.25
2024-04-30 22:12:00,SystemResetWarning,0822.8,5.00,000.00,025.5,024.8,000.0,033.9,027.4,008.5,0000.0,0004.05,0009.78,0002.27
2024-04-30 22:13:00,SystemResetWarning,0822.7,5.00,000.00,025.6,024.9,000.0,033.9,027.5,008.7,0000.0,0004.03,0009.77,0002.26
2024-04-30 22:14:00,SystemResetWarning,0822.8,4.99,000.00,025.7,025.0,000.0,033.9,027.5,008.8,0000.0,0004.03,0009.64,0002.24
2024-04-30 22:15:00,SystemResetWarning,0822.7,4.99,000.00,025.7,025.1,000.0,033.9,027.6,008.9,0000.0,0004.01,0009.43,0002.22
2024-04-30 22:16:00,SystemResetWarning,0822.8,5.01,000.00,025.7,025.1,000.0,034.0,027.6,008.3,0000.0,0004.01,0009.39,0002.22
2024-04-30 22:17:00,SystemResetWarning,0822.7,5.01,000.00,025.8,025.2,000.0,034.0,027.7,008.4,0000.0,0004.01,0009.36,0002.20
2024-04-30 22:18:00,SystemResetWarning,0822.7,5.01,000.00,025.9,025.3,000.0,034.0,027.7,008.5,0000.0,0003.99,0009.29,0002.18
2024-04-30 22:19:00,SystemResetWarning,0822.6,5.00,000.00,025.9,025.3,000.0,034.1,027.8,008.2,0000.0,0003.94,0009.09,0002.16
2024-04-30 22:20:00,SystemResetWarning,0822.8,4.99,000.00,026.0,025.4,000.0,034.1,027.8,008.8,0000.0,0003.86,0008.69,0002.14
2024-04-30 22:21:00,SystemResetWarning,0822.6,5.00,000.00,026.0,025.5,000.0,034.1,027.9,009.0,0000.0,0003.84,0008.58,0002.13
2024-04-30 22:22:00,SystemResetWarning,0822.7,5.00,000.00,026.0,025.5,000.0,034.2,027.9,008.6,0000.0,0003.83,0008.95,0002.14
2024-04-30 22:23:00,SystemResetWarning,0822.9,5.00,000.00,026.1,025.3,000.0,034.2,027.8,008.2,0000.0,0003.79,0008.92,0002.12
2024-04-30 22:24:00,SystemResetWarning,0822.7,5.00,000.00,025.8,023.2,000.0,034.2,026.6,008.4,0000.0,0003.73,0008.72,0002.10
2024-04-30 22:25:00,SystemResetWarning,0822.9,5.01,000.00,025.3,021.6,000.0,034.2,025.8,008.8,0000.0,0003.73,0008.64,0002.11
2024-04-30 22:26:00,SystemResetWarning,0822.7,5.02,000.00,025.1,021.9,000.0,034.1,025.8,009.4,0000.0,0003.73,0008.94,0002.10
2024-04-30 22:27:00,SystemResetWarning,0822.5,4.98,000.00,025.0,022.4,000.0,034.0,026.1,008.7,0000.0,0003.73,0009.18,0002.10
2024-04-30 22:28:00,SystemResetWarning,0822.8,5.01,000.00,025.0,022.8,000.0,033.9,026.4,008.9,0000.0,0003.77,0009.44,0002.11
2024-04-30 22:29:00,SystemResetWarning,0823.0,5.01,000.00,025.1,023.2,000.0,033.8,026.6,007.6,0000.0,0003.82,0009.61,0002.11
2024-04-30 22:30:00,SystemResetWarning,0823.1,5.00,000.00,025.1,023.5,000.0,033.7,026.8,008.0,0000.0,0003.83,0009.82,0002.12
2024-04-30 22:31:00,SystemResetWarning,0822.6,4.99,000.00,025.2,023.8,000.0,033.7,026.9,008.4,0000.0,0003.84,0009.92,0002.11
2024-04-30 22:32:00,SystemResetWarning,0822.7,5.00,000.00,025.2,024.0,000.0,033.7,027.0,008.2,0000.0,0003.88,0009.90,0002.12
2024-04-30 22:33:00,SystemResetWarning,0822.6,5.00,000.00,025.3,024.3,000.0,033.7,027.1,008.6,0000.0,0003.92,0009.44,0002.10
2024-04-30 22:34:00,SystemResetWarning,0822.5,5.01,000.00,025.3,024.4,000.0,033.7,027.2,008.5,0000.0,0003.93,0009.47,0002.09
2024-04-30 22:35:00,SystemResetWarning,0822.8,4.99,000.00,025.4,024.6,000.0,033.7,027.3,008.9,0000.0,0003.97,0009.60,0002.08
2024-04-30 22:36:00,SystemResetWarning,0822.5,4.99,000.00,025.5,024.7,000.0,033.7,027.4,008.9,0000.0,0003.93,0009.53,0002.07
2024-04-30 22:37:00,SystemResetWarning,0822.4,5.00,000.00,025.5,024.8,000.0,033.8,027.4,008.5,0000.0,0003.93,0009.20,0002.07
2024-04-30 22:38:00,SystemResetWarning,0822.4,5.00,000.00,025.6,024.9,000.0,033.8,027.5,008.1,0000.0,0003.91,0008.89,0002.06
2024-04-30 22:39:00,SystemResetWarning,0822.4,5.01,000.00,025.6,025.0,000.0,033.8,027.5,008.3,0000.0,0003.86,0009.01,0002.05
2024-04-30 22:40:00,SystemResetWarning,0822.4,5.01,000.00,025.7,025.1,000.0,033.8,027.6,008.6,0000.0,0003.85,0009.68,0002.07
2024-04-30 22:41:00,SystemResetWarning,0822.4,5.00,000.00,025.7,025.2,000.0,033.9,027.6,008.2,0000.0,0003.86,0009.76,0002.07
2024-04-30 22:42:00,SystemResetWarning,0822.4,5.00,000.00,025.8,025.3,000.0,033.9,027.7,008.1,0000.0,0003.88,0009.74,0002.08
2024-04-30 22:43:00,SystemResetWarning,0822.4,5.00,000.00,025.8,025.3,000.0,034.0,027.7,007.8,0000.0,0003.86,0010.64,0002.08
2024-04-30 22:44:00,SystemResetWarning,0822.4,5.00,000.00,025.9,025.4,000.0,034.0,027.8,008.0,0000.0,0003.85,0010.68,0002.07
2024-04-30 22:45:00,SystemResetWarning,0822.4,5.00,000.00,025.9,025.4,000.0,034.0,027.8,008.4,0000.0,0003.86,0010.73,0002.08
2024-04-30 22:46:00,SystemResetWarning,0822.4,5.00,000.00,025.8,024.1,000.0,034.1,027.0,008.5,0000.0,0003.84,0010.75,0002.08
2024-04-30 22:47:00,SystemResetWarning,0822.3,5.00,000.00,025.4,021.9,000.0,034.1,025.9,008.7,0000.0,0003.83,0010.96,0002.07
2024-04-30 22:48:00,SystemResetWarning,0822.2,5.01,000.00,025.0,021.6,000.0,034.0,025.6,009.2,0000.0,0003.84,0011.07,0002.08
2024-04-30 22:49:00,SystemResetWarning,0822.3,5.00,000.00,024.9,022.1,000.0,033.9,025.7,009.2,0000.0,0003.86,0011.10,0002.07
2024-04-30 22:50:00,SystemResetWarning,0822.4,5.00,000.00,024.9,022.5,000.0,033.7,026.1,009.7,0000.0,0003.89,0011.59,0002.09
2024-04-30 22:51:00,SystemResetWarning,0822.3,5.00,000.00,024.9,022.9,000.0,033.7,026.4,009.2,0000.0,0003.88,0011.46,0002.09
2024-04-30 22:52:00,SystemResetWarning,0822.3,4.99,000.00,025.0,023.2,000.0,033.6,026.6,009.2,0000.0,0003.87,0011.27,0002.10
2024-04-30 22:53:00,SystemResetWarning,0822.3,5.00,000.00,025.0,023.5,000.0,033.6,026.7,009.0,0000.0,0003.86,0011.30,0002.10
2024-04-30 22:54:00,SystemResetWarning,0822.4,5.00,000.00,025.1,023.8,000.0,033.6,026.8,008.8,0000.0,0003.85,0011.69,0002.09
2024-04-30 22:55:00,SystemResetWarning,0822.4,5.00,000.00,025.1,024.0,000.0,033.5,026.9,008.8,0000.0,0003.85,0011.02,0002.10
2024-04-30 22:56:00,SystemResetWarning,0822.3,5.01,000.00,025.2,024.2,000.0,033.5,027.0,009.1,0000.0,0003.87,0011.07,0002.11
2024-04-30 22:57:00,SystemResetWarning,0822.3,5.00,000.00,025.2,024.4,000.0,033.6,027.1,009.4,0000.0,0003.85,0011.05,0002.12
2024-04-30 22:58:00,SystemResetWarning,0822.3,5.00,000.00,025.3,024.5,000.0,033.6,027.2,009.6,0000.0,0003.88,0010.87,0002.12
2024-04-30 22:59:00,SystemResetWarning,0822.3,5.00,000.00,025.4,024.7,000.0,033.6,027.2,009.4,0000.0,0003.94,0010.98,0002.12
